Date,TemperatureHighF,TemperatureAvgF,TemperatureLowF,DewpointHighF,DewpointAvgF,DewpointLowF,HumidityHigh,HumidityAvg,HumidityLow,PressureMaxIn,PressureMinIn,WindSpeedMaxMPH,WindSpeedAvgMPH,GustSpeedMaxMPH,PrecipitationSumIn
2013-1-9,52.2,51.8,51.3,42.2,41.4,41.0,71,68,66,29.76,29.75,11,7,12,0.00
2013-1-10,58.1,52.0,48.4,55.1,50.2,41.8,99,94,69,29.74,29.07,20,6,20,0.25
2013-1-11,72.0,57.8,46.8,51.8,46.3,43.3,94,68,41,29.44,29.25,16,7,24,0.00
2013-1-12,61.2,39.5,25.7,51.2,26.9,18.0,86,64,28,29.68,29.39,16,7,25,0.09
2013-1-13,33.6,24.7,16.7,18.1,12.3,7.3,74,59,43,29.96,29.57,13,4,19,0.01
2013-1-14,37.8,25.3,16.2,15.0,10.8,6.5,77,55,30,30.05,29.88,11,3,16,0.00
2013-1-15,36.0,26.2,18.9,18.5,12.2,2.4,78,58,25,29.90,29.75,10,3,13,0.01
2013-1-16,50.2,32.3,16.0,20.0,13.6,6.5,68,48,24,29.80,29.67,10,2,14,0.00
2013-1-17,56.8,41.1,27.0,33.4,26.5,15.7,82,58,32,30.06,29.78,12,2,18,0.00
2013-1-18,60.4,45.8,32.5,35.0,29.6,23.4,73,55,33,30.07,29.76,16,6,24,0.00
2013-1-19,68.4,51.6,41.0,37.7,34.9,31.9,73,55,29,29.79,29.66,14,5,20,0.02
2013-1-20,66.2,47.6,32.5,42.0,31.6,15.5,73,55,38,29.87,29.69,17,4,22,0.00
2013-1-21,43.9,31.5,23.5,16.9,12.5,7.3,63,47,24,29.99,29.85,14,4,18,0.00
2013-1-22,56.1,36.7,19.2,31.5,22.6,12.9,83,59,32,29.89,29.74,11,2,19,0.00
2013-1-23,66.4,45.5,25.2,45.6,35.2,20.5,92,69,43,29.83,29.69,8,2,13,0.00
2013-1-24,46.8,38.6,34.3,39.9,23.9,19.7,77,56,47,29.84,29.68,12,5,19,0.00
2013-1-25,52.5,38.7,29.3,32.3,27.4,22.8,78,65,43,29.83,29.69,8,2,12,0.00
2013-1-26,55.8,44.0,30.7,38.8,32.1,24.3,79,63,41,29.83,29.65,12,4,17,0.00
2013-1-27,61.0,54.1,45.9,58.6,51.6,36.4,99,91,68,29.68,29.45,17,7,27,0.00
2013-1-28,77.2,68.7,61.0,63.7,61.9,57.2,91,79,60,29.52,29.34,18,9,28,0.01
2013-1-29,71.4,58.1,41.0,63.6,54.3,39.0,99,88,73,29.34,29.02,19,6,32,0.89
2013-1-30,42.4,36.1,25.0,39.5,27.4,19.5,91,71,55,29.64,29.20,20,6,33,0.00
2013-1-31,54.0,33.7,22.8,30.5,20.0,6.5,84,60,22,30.03,29.59,17,4,28,0.00